GW3101 Weather Reports


time (UTC)temp
C
wind
direction
speed
KPH
gust
KPH
rain 1hr
cm
rain 24hr
cm
rain mn
cm
humidity
%
barometer
mb
20260507072705 8 29 0.0 0.0 0.00 0.05 0.05 99 1007.4
20260507072202 8 174 1.6 3.2 0.00 0.05 0.05 99 1007.3
20260507071659 8 255 0.0 1.6 0.00 0.05 0.05 99 1007.3
20260507071155 8 138 1.6 1.6 0.13 0.05 0.05 99 1006.9
20260507070653 8 12 0.0 0.0 0.13 0.05 0.05 99 1007.3
20260507070149 8 330 4.8 8.0 0.00 0.03 0.03 99 1006.9
20260507065646 8 320 1.6 1.6 0.00 0.03 0.03 99 1007.0
20260507065143 8 320 1.6 1.6 0.00 0.03 0.03 99 1006.9
20260507064640 9 335 1.6 1.6 0.00 0.03 0.03 99 1006.7
20260507064139 9 334 0.0 0.0 0.00 0.03 0.03 99 1006.4
20260507063636 9 46 0.0 0.0 0.00 0.03 0.03 99 1006.0
20260507063133 9 72 0.0 0.0 0.00 0.03 0.03 99 1006.1
20260507062629 9 1 0.0 0.0 0.00 0.03 0.03 99 1006.0
20260507062127 9 344 0.0 0.0 0.00 0.03 0.03 99 1006.1
20260507061625 9 1 3.2 3.2 0.00 0.03 0.03 99 1006.3
20260507061123 9 308 0.0 0.0 0.00 0.03 0.03 99 1006.6
20260507060621 9 332 1.6 1.6 0.00 0.03 0.03 99 1006.8
20260507060117 9 353 3.2 3.2 0.00 0.03 0.03 99 1006.5
20260507055612 9 355 3.2 8.0 0.00 0.03 0.03 99 1006.7
20260507055108 10 305 1.6 1.6 0.00 0.03 0.03 99 1006.7
20260507054604 10 336 1.6 1.6 0.00 0.03 0.03 99 1006.6
20260507054102 10 341 0.0 0.0 0.00 0.03 0.03 99 1006.6
20260507053559 10 5 0.0 0.0 0.00 0.03 0.03 99 1006.5
20260507053058 10 325 0.0 0.0 0.00 0.03 0.03 99 1006.8
20260507052556 10 8 0.0 0.0 0.00 0.03 0.03 99 1006.8
20260507052052 10 351 1.6 1.6 0.00 0.03 0.03 99 1007.1
20260507051549 10 315 0.0 0.0 0.00 0.03 0.03 99 1007.0
20260507051046 10 10 0.0 0.0 0.00 0.03 0.03 99 1007.0
20260507050543 10 347 1.6 1.6 0.00 0.03 0.03 99 1007.1
20260507050039 10 330 1.6 1.6 0.00 0.03 0.03 99 1007.2
20260507045536 10 342 0.0 0.0 0.00 0.03 0.03 99 1007.2
20260507045033 11 177 1.6 1.6 0.00 0.03 0.03 99 1007.1
20260507044530 11 3 1.6 3.2 0.00 0.03 0.03 99 1006.8
20260507044027 11 10 0.0 1.6 0.18 0.03 0.03 99 1006.8
20260507043523 11 257 0.0 0.0 0.18 0.03 0.03 99 1007.1
20260507043020 11 319 0.0 0.0 0.00 0.00 0.00 99 1007.0
20260507042516 11 281 0.0 0.0 0.00 0.00 0.00 99 1006.8
20260507042011 11 340 0.0 0.0 0.00 0.00 0.00 99 1007.0
20260507041509 11 5 0.0 1.6 0.00 0.00 0.00 99 1007.1
20260507041006 11 292 0.0 1.6 0.13 0.00 0.00 99 1007.5
20260507040502 11 356 0.0 1.6 0.13 0.00 0.00 99 1007.0
20260507035957 11 332 0.0 0.0 0.00 1.12 1.12 99 1007.2
20260507035454 11 275 0.0 0.0 0.00 1.12 1.12 99 1007.1
20260507034951 11 308 0.0 0.0 0.00 1.12 1.12 99 1007.0
20260507034448 11 328 1.6 1.6 0.00 1.12 1.12 99 1007.0
20260507033946 11 316 0.0 1.6 0.00 1.12 1.12 99 1007.1
20260507033443 11 328 0.0 0.0 0.00 1.12 1.12 99 1007.0
20260507032940 11 325 1.6 1.6 0.00 1.12 1.12 99 1007.3
20260507032437 12 323 1.6 1.6 0.00 1.12 1.12 99 1007.5
20260507031933 12 26 1.6 1.6 0.18 1.12 1.12 99 1007.5
20260507031430 12 327 1.6 1.6 0.48 1.12 1.12 99 1007.4
20260507030927 12 164 0.0 1.6 0.61 1.09 1.09 99 1007.1
20260507030424 12 310 1.6 1.6 0.48 1.04 1.04 99 1007.2
20260507025921 12 332 0.0 0.0 0.18 0.99 0.99 99 1007.1
20260507025418 12 309 0.0 1.6 0.00 0.97 0.97 99 1006.9
20260507024916 13 187 1.6 1.6 0.13 0.97 0.97 99 1007.0
20260507024413 13 358 6.4 9.7 0.30 0.97 0.97 99 1007.1
20260507023909 13 314 1.6 1.6 0.18 0.94 0.94 99 1007.0
20260507023406 13 20 3.2 3.2 0.00 0.91 0.91 99 1006.7
20260507022903 13 209 0.0 0.0 0.00 0.91 0.91 99 1006.6
20260507022400 13 192 1.6 3.2 0.00 0.91 0.91 99 1006.5
20260507021856 13 48 0.0 1.6 0.00 0.91 0.91 99 1006.5
20260507021351 13 300 0.0 1.6 0.00 0.91 0.91 99 1006.7
20260507020849 13 307 0.0 1.6 0.00 0.91 0.91 99 1006.5
20260507020345 13 213 0.0 3.2 0.00 0.91 0.91 99 1006.6
20260507015842 13 156 0.0 0.0 0.00 0.91 0.91 99 1006.3
20260507015340 13 163 0.0 0.0 0.00 0.91 0.91 99 1006.5
20260507014837 13 222 1.6 1.6 0.00 0.91 0.91 99 1006.7
20260507014333 13 353 0.0 0.0 0.00 0.91 0.91 99 1006.8
20260507013830 13 262 1.6 3.2 0.00 0.91 0.91 99 1006.6
20260507013327 13 228 0.0 0.0 0.00 0.91 0.91 99 1006.7
20260507012825 13 61 4.8 8.0 0.00 0.91 0.91 99 1006.6
20260507012320 13 277 0.0 0.0 0.00 0.91 0.91 99 1006.6
20260507011818 13 304 0.0 0.0 0.00 0.91 0.91 99 1006.5
20260507011314 13 196 0.0 0.0 0.00 0.91 0.91 99 1006.5
20260507010814 13 178 0.0 0.0 0.00 0.91 0.91 99 1006.3
20260507010310 13 187 0.0 1.6 0.00 0.91 0.91 99 1006.2
20260507005807 13 182 0.0 0.0 0.00 0.91 0.91 99 1006.2
20260507005305 13 130 0.0 0.0 0.00 0.91 0.91 99 1006.5
20260507004801 13 244 3.2 4.8 0.00 0.91 0.91 99 1006.5
20260507004258 13 173 1.6 1.6 0.00 0.91 0.91 99 1006.7
20260507003754 13 164 3.2 8.0 0.00 0.91 0.91 99 1006.5
20260507003249 13 226 4.8 8.0 0.00 0.91 0.91 99 1006.9
20260507002746 13 303 3.2 3.2 0.00 0.91 0.91 99 1006.7
20260507002242 13 198 1.6 3.2 0.00 0.91 0.91 99 1006.8
20260507001739 13 168 1.6 1.6 0.13 0.91 0.91 99 1006.7
20260507001236 13 332 1.6 1.6 0.13 0.91 0.91 99 1006.8
20260507000732 13 158 0.0 1.6 0.00 0.89 0.89 99 1006.8
20260507000228 13 235 4.8 8.0 0.00 0.89 0.89 99 1006.4
20260506235725 13 195 8.0 9.7 0.00 0.89 0.89 99 1006.4
20260506235221 13 221 0.0 1.6 0.00 0.89 0.89 99 1006.4
20260506234718 13 170 6.4 8.0 0.00 0.89 0.89 99 1006.3
20260506234215 13 136 0.0 1.6 0.00 0.89 0.89 99 1006.5
20260506233713 13 131 0.0 0.0 0.00 0.89 0.89 99 1006.3
20260506233209 13 189 0.0 1.6 0.00 0.89 0.89 99 1006.1
20260506232706 13 134 0.0 0.0 0.00 0.89 0.89 99 1006.1
20260506232200 13 161 0.0 0.0 0.00 0.89 0.89 99 1006.2
20260506231658 13 195 4.8 9.7 0.00 0.89 0.89 99 1006.1
20260506231156 13 299 1.6 1.6 0.00 0.89 0.89 99 1005.9
20260506230653 13 199 1.6 1.6 0.00 0.89 0.89 99 1006.1
20260506230149 13 169 3.2 3.2 0.00 0.89 0.89 99 1006.3
20260506225646 13 162 11.3 11.3 0.18 0.89 0.89 99 1006.2
20260506225143 13 176 0.0 0.0 0.30 0.89 0.89 99 1006.0
20260506224639 13 234 0.0 0.0 0.13 0.86 0.86 99 1006.1
20260506224136 13 133 0.0 0.0 0.00 0.84 0.84 99 1006.0
20260506223632 13 265 3.2 3.2 0.18 0.84 0.84 99 1005.8
20260506223128 13 171 1.6 3.2 0.48 0.84 0.84 99 1006.3
20260506222626 13 145 0.0 1.6 0.43 0.81 0.81 99 1006.2
20260506222122 13 218 1.6 1.6 0.13 0.76 0.76 99 1006.0
20260506221620 13 175 1.6 1.6 0.00 0.74 0.74 99 1006.1
20260506221117 13 198 1.6 3.2 0.00 0.74 0.74 99 1006.0
20260506220614 13 155 1.6 1.6 0.00 0.74 0.74 99 1006.1
20260506220109 13 228 0.0 0.0 0.18 0.74 0.74 99 1006.0
20260506215606 13 278 3.2 3.2 0.18 0.74 0.74 99 1006.2
20260506215101 13 253 1.6 3.2 0.00 0.71 0.71 99 1006.0
20260506214559 13 226 4.8 8.0 0.00 0.71 0.71 99 1006.0
20260506214056 13 172 8.0 9.7 0.00 0.71 0.71 99 1006.1
20260506213554 13 44 1.6 3.2 0.00 0.71 0.71 99 1006.2
20260506213051 13 177 1.6 3.2 0.13 0.71 0.71 99 1006.3
20260506212548 13 197 0.0 0.0 0.13 0.71 0.71 99 1006.0
20260506212042 13 182 6.4 8.0 0.18 0.69 0.69 99 1006.2
20260506211539 13 190 3.2 3.2 0.36 0.69 0.69 99 1006.3
20260506211036 13 142 4.8 4.8 0.30 0.66 0.66 99 1006.3
20260506210532 13 139 3.2 3.2 0.43 0.64 0.64 99 1006.4
20260506210029 13 277 1.6 1.6 0.48 0.61 0.61 99 1006.3
20260506205526 13 181 4.8 8.0 0.30 0.56 0.56 99 1006.8
20260506205021 13 167 3.2 3.2 0.30 0.53 0.53 99 1006.7
20260506204520 13 151 0.0 0.0 0.18 0.51 0.51 99 1006.7
20260506204016 13 148 1.6 1.6 0.00 0.48 0.48 99 1006.8
20260506203515 13 179 1.6 3.2 0.13 0.48 0.48 99 1006.7
20260506203011 13 173 0.0 0.0 0.30 0.48 0.48 99 1006.6
20260506202508 13 182 3.2 3.2 0.30 0.46 0.46 99 1006.9
20260506202004 13 225 3.2 3.2 0.30 0.43 0.43 99 1006.7
20260506201502 13 171 8.0 9.7 0.18 0.41 0.41 99 1006.8
20260506200958 13 150 6.4 9.7 0.13 0.38 0.38 99 1006.7
20260506200454 13 192 4.8 4.8 0.13 0.38 0.38 99 1006.9
20260506195951 13 154 3.2 4.8 0.18 0.36 0.36 99 1007.0
20260506195448 13 154 4.8 8.0 0.18 0.36 0.36 99 1007.2
20260506194944 13 138 6.4 11.3 0.00 0.33 0.33 99 1007.1
20260506194442 13 283 4.8 9.7 0.00 0.33 0.33 99 1007.1
20260506193933 13 186 8.0 9.7 0.00 0.33 0.33 99 1007.4
20260506193430 13 217 4.8 4.8 0.00 0.33 0.33 99 1007.6
20260506192927 13 116 1.6 1.6 0.00 0.33 0.33 99 1007.4
20260506192424 13 173 1.6 1.6 0.18 0.33 0.33 99 1007.4
20260506191920 13 117 1.6 3.2 0.18 0.33 0.33 99 1007.3
20260506191417 13 142 4.8 4.8 0.00 0.30 0.30 99 1007.2
20260506190914 13 225 3.2 3.2 0.00 0.30 0.30 99 1007.6
20260506190410 13 202 4.8 8.0 0.13 0.30 0.30 98 1007.5
20260506185907 13 148 0.0 0.0 0.13 0.30 0.30 98 1007.7
20260506185404 13 229 1.6 3.2 0.18 0.28 0.28 98 1007.5
20260506184902 14 232 0.0 0.0 0.18 0.28 0.28 98 1007.6
20260506184358 14 279 3.2 4.8 0.13 0.25 0.25 98 1007.6
20260506183856 14 205 4.8 4.8 0.30 0.25 0.25 97 1007.6
20260506183350 14 170 3.2 3.2 0.30 0.23 0.23 97 1007.3
20260506182848 15 167 8.0 11.3 0.48 0.23 0.23 96 1007.6
20260506182345 15 165 4.8 8.0 0.43 0.20 0.20 96 1007.6
20260506181843 15 152 6.4 9.7 0.30 0.15 0.15 95 1007.8
20260506181341 15 286 1.6 1.6 0.30 0.13 0.13 94 1007.9
20260506180837 15 173 0.0 0.0 0.30 0.10 0.10 94 1007.9
20260506180333 15 243 1.6 1.6 0.36 0.08 0.08 93 1008.3
20260506175830 15 183 0.0 0.0 0.18 0.05 0.05 92 1008.0
20260506175327 15 253 1.6 1.6 0.00 0.03 0.03 91 1008.2
20260506174824 16 154 0.0 1.6 0.13 0.03 0.03 91 1008.4
20260506174321 16 147 0.0 0.0 0.13 0.03 0.03 89 1008.4
20260506173819 16 270 3.2 8.0 0.00 0.00 0.00 88 1008.3
20260506173315 16 195 1.6 1.6 0.00 0.00 0.00 87 1008.5
20260506172813 17 181 1.6 1.6 0.00 0.00 0.00 86 1008.7
20260506172309 17 355 0.0 1.6 0.00 0.00 0.00 84 1008.8
20260506171807 17 215 4.8 4.8 0.00 0.00 0.00 82 1008.7
20260506171303 18 5 3.2 3.2 0.00 0.00 0.00 80 1008.7
20260506170801 18 139 4.8 4.8 0.00 0.00 0.00 78 1008.7
20260506170257 18 22 4.8 8.0 0.00 0.00 0.00 76 1008.5
20260506165756 19 193 4.8 4.8 0.00 0.00 0.00 75 1008.6
20260506165253 19 195 3.2 8.0 0.00 0.00 0.00 74 1008.7
20260506164750 20 165 3.2 4.8 0.00 0.00 0.00 74 1008.3
20260506164246 19 125 11.3 12.9 0.00 0.00 0.00 74 1008.5
20260506163744 20 203 9.7 12.9 0.00 0.00 0.00 73 1008.3
20260506163238 20 119 17.7 22.5 0.00 0.00 0.00 73 1008.3
20260506162734 20 177 6.4 9.7 0.00 0.00 0.00 72 1008.4
20260506162232 19 148 6.4 8.0 0.00 0.00 0.00 74 1008.4
20260506161724 20 183 1.6 3.2 0.00 0.00 0.00 73 1008.5
20260506161221 20 281 3.2 3.2 0.00 0.00 0.00 73 1008.6
20260506160718 20 27 1.6 1.6 0.00 0.00 0.00 73 1008.8
20260506160215 20 256 4.8 4.8 0.00 0.00 0.00 72 1008.8
20260506155713 20 167 11.3 16.1 0.00 0.00 0.00 71 1008.8
20260506155210 20 175 3.2 3.2 0.00 0.00 0.00 71 1008.6
20260506153312 20 185 3.2 3.2 0.00 0.00 0.00 71 1008.8
20260506152809 20 193 4.8 8.0 0.00 0.00 0.00 71 1009.0
20260506152306 20 183 3.2 4.8 0.00 0.00 0.00 70 1008.9
20260506151805 20 244 6.4 9.7 0.00 0.00 0.00 70 1008.9
20260506151301 20 139 3.2 3.2 0.00 0.00 0.00 71 1009.1
20260506150758 20 292 4.8 8.0 0.00 0.00 0.00 72 1009.2
20260506150303 20 167 8.0 11.3 0.00 0.00 0.00 71 1009.2
20260506145752 20 243 8.0 11.3 0.00 0.00 0.00 72 1009.2
20260506145248 20 253 1.6 1.6 0.00 0.00 0.00 73 1009.3
20260506144746 20 133 8.0 12.9 0.00 0.00 0.00 71 1009.2
20260506144243 20 178 4.8 11.3 0.00 0.00 0.00 72 1009.2
20260506143740 20 209 4.8 8.0 0.00 0.00 0.00 73 1009.2
20260506143237 20 226 8.0 11.3 0.00 0.00 0.00 73 1009.6
20260506142736 19 257 4.8 4.8 0.00 0.00 0.00 75 1009.4
20260506142233 18 253 6.4 9.7 0.00 0.00 0.00 76 1009.3
20260506141731 18 165 4.8 9.7 0.00 0.00 0.00 77 1009.6
20260506141229 18 165 6.4 8.0 0.00 0.00 0.00 78 1009.5
20260506140727 18 171 8.0 9.7 0.00 0.00 0.00 78 1009.3
20260506140223 18 259 6.4 8.0 0.00 0.00 0.00 78 1009.4
20260506135720 18 201 3.2 3.2 0.00 0.00 0.00 78 1009.4
20260506135216 18 219 4.8 4.8 0.00 0.00 0.00 78 1009.3
20260506134714 18 175 3.2 4.8 0.00 0.00 0.00 79 1009.0
20260506134209 18 207 1.6 1.6 0.00 0.00 0.00 79 1009.2
20260506133707 18 209 3.2 4.8 0.00 0.00 0.00 79 1009.3
20260506133203 18 194 4.8 4.8 0.00 0.00 0.00 81 1009.3
20260506132701 18 317 6.4 12.9 0.00 0.00 0.00 81 1009.2
20260506132157 18 168 4.8 4.8 0.00 0.00 0.00 81 1009.4
20260506131655 17 197 6.4 8.0 0.00 0.00 0.00 82 1009.6
20260506131151 17 172 8.0 14.5 0.00 0.00 0.00 82 1009.7
20260506130648 17 196 6.4 11.3 0.00 0.00 0.00 84 1009.6
20260506130146 17 196 1.6 1.6 0.00 0.00 0.00 85 1009.8
20260506125644 17 218 3.2 4.8 0.00 0.00 0.00 85 1009.7
20260506125141 17 155 8.0 12.9 0.00 0.00 0.00 85 1009.8
20260506124639 17 267 3.2 4.8 0.00 0.00 0.00 86 1009.7
20260506124136 16 209 0.0 1.6 0.00 0.00 0.00 86 1010.0
20260506123634 16 221 4.8 4.8 0.00 0.00 0.00 87 1009.8
20260506123132 16 161 1.6 3.2 0.00 0.00 0.00 88 1009.8
20260506122629 16 102 1.6 3.2 0.00 0.00 0.00 88 1009.7
20260506122126 16 229 6.4 9.7 0.00 0.00 0.00 88 1009.8
20260506121624 16 147 4.8 8.0 0.00 0.00 0.00 90 1010.1
20260506121120 15 126 0.0 1.6 0.00 0.00 0.00 90 1009.8
20260506120618 15 165 4.8 4.8 0.00 0.00 0.00 91 1010.0
20260506120115 15 184 4.8 4.8 0.00 0.00 0.00 91 1009.8
20260506115614 15 210 0.0 1.6 0.00 0.00 0.00 92 1010.2
20260506115112 15 258 3.2 4.8 0.00 0.00 0.00 92 1010.0
20260506114608 15 131 3.2 4.8 0.00 0.00 0.00 92 1009.6
20260506114107 15 124 4.8 9.7 0.00 0.00 0.00 93 1009.6
20260506113604 14 160 0.0 0.0 0.00 0.00 0.00 94 1010.0
20260506113101 14 251 1.6 4.8 0.00 0.00 0.00 94 1010.2
20260506112558 13 162 4.8 4.8 0.00 0.00 0.00 95 1010.2
20260506112055 13 172 4.8 8.0 0.00 0.00 0.00 96 1010.3
20260506111553 13 213 1.6 1.6 0.00 0.00 0.00 96 1010.5
20260506111050 13 148 1.6 1.6 0.00 0.00 0.00 96 1010.4
20260506110548 13 217 1.6 3.2 0.00 0.00 0.00 96 1010.5
20260506110045 13 182 3.2 3.2 0.00 0.00 0.00 96 1010.5
20260506105541 13 143 8.0 11.3 0.00 0.00 0.00 96 1010.4
20260506105039 13 173 1.6 1.6 0.00 0.00 0.00 97 1010.1
20260506104536 12 140 3.2 3.2 0.00 0.00 0.00 97 1010.0
20260506104034 12 129 0.0 0.0 0.00 0.00 0.00 97 1010.0
20260506103531 12 138 0.0 1.6 0.00 0.00 0.00 97 1010.1
20260506103027 12 131 1.6 3.2 0.00 0.00 0.00 97 1010.2
20260506102526 12 133 0.0 1.6 0.00 0.00 0.00 97 1010.1
20260506102023 12 171 0.0 1.6 0.00 0.00 0.00 97 1010.1
20260506101519 12 128 3.2 3.2 0.00 0.00 0.00 97 1010.1
20260506101017 12 221 0.0 0.0 0.00 0.00 0.00 97 1010.1
20260506100515 12 137 0.0 0.0 0.00 0.00 0.00 97 1010.2
20260506100013 12 175 0.0 0.0 0.00 0.00 0.00 97 1010.0
20260506095511 12 132 0.0 1.6 0.00 0.00 0.00 97 1010.0
20260506095007 12 134 0.0 1.6 0.00 0.00 0.00 96 1010.1
20260506094505 12 102 0.0 0.0 0.00 0.00 0.00 96 1009.8
20260506094003 12 198 0.0 0.0 0.00 0.00 0.00 96 1010.1
20260506093501 12 177 0.0 1.6 0.00 0.00 0.00 96 1009.8
20260506092958 12 150 4.8 4.8 0.00 0.00 0.00 96 1009.7
20260506092456 12 153 3.2 3.2 0.00 0.00 0.00 95 1010.1
20260506091952 12 195 1.6 1.6 0.00 0.00 0.00 95 1010.0
20260506091451 12 179 0.0 0.0 0.00 0.00 0.00 95 1010.1
20260506090947 12 109 0.0 1.6 0.00 0.00 0.00 95 1010.1
20260506090445 12 191 0.0 0.0 0.00 0.00 0.00 95 1010.0
20260506085941 12 128 0.0 0.0 0.00 0.00 0.00 94 1009.8
20260506085438 12 146 1.6 3.2 0.00 0.00 0.00 95 1010.3
20260506084935 12 236 0.0 0.0 0.00 0.00 0.00 94 1010.4
20260506084432 12 81 0.0 0.0 0.00 0.00 0.00 94 1010.3
20260506083927 12 151 1.6 3.2 0.00 0.00 0.00 94 1010.1
20260506083425 13 108 0.0 1.6 0.00 0.00 0.00 94 1009.8
20260506082922 13 104 0.0 0.0 0.00 0.00 0.00 93 1010.2
20260506082419 13 134 1.6 1.6 0.00 0.00 0.00 93 1010.2
20260506081915 13 112 1.6 3.2 0.00 0.00 0.00 93 1010.1
20260506081414 13 217 0.0 0.0 0.00 0.00 0.00 93 1010.1
20260506080910 13 138 0.0 1.6 0.00 0.00 0.00 93 1010.4
20260506080407 13 260 1.6 3.2 0.00 0.00 0.00 93 1010.5
20260506073351 13 185 1.6 1.6 0.00 0.00 0.00 91 1010.7